COSMOS 1375 DEB

Satellite information

Favourite Embed

Satellite Type and Status

DEBRISIN ORBIT

Key statistics

Satellite COSMOS 1375 DEB at a glance.

Uptime

15848

Days in orbit

Revolutions

≈ 14.0

Per day

Orbit

LEO

Low Earth Orbit

Inclination

65.8

Latest

Satellite identification and parameters

Extended collection of information and parameters for COSMOS 1375 DEB.

Object identification

Identified? True

Debris? True

Object name: COSMOS 1375 DEB

International designator: 1982-055AR

Object number (NORAD): 17799

Object ID (CCSDS): 17799

Country: COMMONWEALTH OF INDEPENDENT STATES (CIS)

Current information (Y/N): Y

RCS size: SMALL

Orbital parameters

Period: 103.16 minutes

Inclination: 65.8368 deg

SMA: 7286.203 km

Apoapsis: 925.605 km

Periapsis: 890.53 km

RAAN: 197.7906 deg

Eccentricy: 0.00240697

Argument of periapsis: 183.405 deg

Mean anomaly: 250.128 deg

Mean motion: 13.95889037 rev/day

Mean motion (dot): 0.00000847 rev/day2

B* drag term: 0.00067954099 1/REarth

Two-line elements (TLE)

Creation date: Oct. 26, 2025, 2:54 a.m.

Reference frame: TEME

Reference center: EARTH

Epoch: Oct. 25, 2025, 7:51 p.m. UTC

TLE line 0: 0 COSMOS 1375 DEB

TLE line 1: 1 17799U 82055AR 25298.82751853 .00000847 00000-0 67954-3 0 9991

TLE line 2: 2 17799 65.8368 197.7906 0024070 183.4050 250.1280 13.95889037 27116

Live tracking on map

Real-time ground track for satellite COSMOS 1375 DEB.

In-orbit conjunctions

A list of the most updated potential collisions computed for object COSMOS 1375 DEB.

Target Orbit TCA Probability of collision Miss distance Type
FENGYUN 1C DEB SSO 2025-10-24 18:13:05 0.000111176 117.0 (m) DEBRIS
METEOR 1-18 LEO 2024-11-12 18:08:59 0.001843701 865.0 (m) PAYLOAD

Associated space launch

ASAT target satellite

COSMOS 1375 DEB was lifted into orbit during the mission ‘Kosmos-3M | DS-P1-M 16’, on board a Kosmos-3M space rocket.

The launch took place on June 6, 1982, 5:10 p.m. from 132/2.

For more information about the launch, click the button.

Launch to space Kosmos-3M | DS-P1-M 16
Kosmos-3M | DS-P1-M 16

Agency: N/A

Status: Launch Successful

Launch date: June 6, 1982, 5:10 p.m. UTC

Rocket: Kosmos-3M

Launch pad: 132/2

Location: Plesetsk Cosmodrome, Russian Federation

...

Latest news about this satellite

There are no fresh news available about this satellite. Check back as we update our databases every day.


Newsletter sign-up

Weekly statistics, charts and insights to help you stay on top of the space industry.